Location: Asheville, NC
(35.6000°N, 82.5500°W)
Time: 01:13:48
(UTC-05:00)

BEESAT 3 - Visible Passes

Search period start: 21 January 2018 00:00
Search period end: 31 January 2018 00:00
Orbit: 490 x 529 km, 64.9° (Epoch: 20 January)

Date Brightness Start Highest point End Pass type
(mag) Time Alt. Az. Time Alt. Az. Time Alt. Az.
21 Jan ? 18:51:49 10° NNW 18:55:42 68° ENE 18:59:30 10° SE visible
22 Jan ? 18:34:08 10° NNW 18:38:00 66° ENE 18:41:48 10° SE visible
23 Jan ? 18:16:27 10° NNW 18:20:18 64° ENE 18:24:06 10° SE visible
28 Jan ? 06:52:44 10° SSE 06:55:34 19° ESE 06:58:25 10° ENE visible
29 Jan ? 06:35:06 10° SSE 06:37:52 18° ESE 06:40:40 10° ENE visible
30 Jan ? 06:17:26 10° SSE 06:20:10 18° ESE 06:22:55 10° ENE visible
